Showing default

OPS 0082 (TRANSIT 13), 2176

Orbit data source: Space-Track

OPS 0082 (TRANSIT 13), 2176 is a payload satellite owned by USN NAVAIR (US) in LEO that was launched on Thu, 19 May 1966 UTC via an SCOUT A launch vehicle from the Air Force Western Test Range (AFWTR). Payloads include a variety of satellites, spacecraft, and rockets equipped with specific instruments for various scientific and technological missions. These include communications satellites like Starlink; space stations such as the ISS; scientific satellites like the Hubble; Earth observation satellites from companies like Planet Labs, Umbra, and HawkEye 360; GPS; miniature CubeSats for education and research; and military/defense satellites.

Loading next visibility...
OPS 0082 (TRANSIT 13) details
Identifier
2176, 1966-041A
Orbit
LEO
Last TLE update21 hours ago
Origin
Flag of USUSN NAVAIR (US)
ManufacturerAPL
MissionDefense Navigation
Bus & MotorTRANSIT 5, Unknown motor
Mass51 kg wet, 51 kg dry
Launch date (UTC)
1966-05-19 (59 years ago)
Launch vehicle
SCOUT A
Launch site
Air Force Western Test Range (AFWTR)
Object type
Payload
Rocket body
Debris
Shape & HBROct Cyl + 4 Pan + 1 Rod, Unknown HBR
Radar Cross Section7.565 m², Large (>1 m²)

Expand to show TLE details & history

TLE from 21 hours ago
0 OPS 0082 (TRANSIT 13)
1 02176U 66041A   24355.74040300  .00000402  00000-0  24325-3 0  9995
2 02176  90.2281  69.5131 0065734  31.6051 328.9051 14.03955753991184
Epoch: 2024-12-20T17:46Z
Definitive object data (Epoch: 2024-12-20T17:46:10.819Z)
Latitude-0.00005°
Longitude73.16645°
Altitude842.381 km
Speed7.452 km/s
True Right ascension04h 38m 03s
True Declination0° 00' 00"
Sunlit
Object was in full shadow at TLE epoch
Visualization TLE readout
Latitude52.70739°
Longitude72.89033°
Altitude845.076 km
Speed7.458 km/s
Apparent Right ascension03h 00m 28s
Apparent Declination10° 55' 26"
Sunlit
Object is in full shadow
Visualization observer readout
Local Sidereal Time13:34:40
Azimuth333.861° NNW
Elevation-35.403°
Doppler factor1
Orbital elements
Apogee altitude924.792 km
Perigee altitude829.409 km
Semi-major axis7,255.238 km
Eccentricity0.0065734
Inclination90.2281°
RAAN69.5131°
Arg. of periapsis31.6051°
True anomaly328.51332°
Mean anomaly328.9051°
Eccentric anomaly328.70949°
Mean motion3.51209 °/min
BSTAR0.00024325
Orbital period102.5 mins
Loading maneuver chart data...
Loading historical data...
Loading historical data...
Loading historical data...
Loading historical data...
Loading historical data...
Loading historical data...
Loading historical data...

OPS 0082 (TRANSIT 13) Visibility forecast

Observer location: undefined°, undefined

Span
Click to sort rows by Start time (UTC) header in descending order
Start Az.
Max El. time (UTC)
Max El. Az.
Max El.
End time (UTC)
End Az.
9 mins2024-12-21 16:35:31.610Z28.063° NE2024-12-21 16:39:31.610Z77.017° E25.95°2024-12-21 16:44:31.610Z141.763° SSE
9 mins2024-12-21 18:18:31.610Z337.221° NNW2024-12-21 18:22:31.610Z275.681° WNW30.36°2024-12-21 18:27:31.610Z216.467° SW
4 mins2024-12-22 04:09:31.610Z89.219° E2024-12-22 04:10:31.610Z76.437° E15.608°2024-12-22 04:13:31.610Z40.67° NE
9 mins2024-12-22 05:48:31.610Z193.624° SSW2024-12-22 05:52:31.610Z266.046° W40.787°2024-12-22 05:57:31.610Z348.763° N
|